STARLINK-33927 (64001 NORAD) Tracking and Keplerian Element Data

This shows tracking and keplerian element data for the satellite.

Feedback or suggestion? Click here.




ElementValue
Catalog64001
NameSTARLINK-33927
Epoch Orbit3480
Epoch Day353.6140889
Epoch Year2025
RAAN90.6257
Inclination42.9975
Eccentricity0.0001371
Argument of Perigee266.2422
Mean Anonmoly93.8273
Mean Motion15.27591899
Decay Rate0.00019763
L11 64001U 25101H 25353.61408890 .00019763 00000+0 72551-3 0 9992
L22 64001 42.9975 90.6257 0001371 266.2422 93.8273 15.27591899 34807



Live tracking and technical data element details for STARLINK-33927 (NORAD 64001). STARLINK-33927 can be tracked NOW for your location showing map with azimuth and elevation plus other details from your city location.







IsCatalogInMostPopularTable: catalog: 64001, numindb: 9
Update: records affected: 1



GetName: 64001 STARLINK-33927

Hit Count: updated at: Mon, 20 Apr 2026 10:39:23 GMT